Flag for Norway Weather past 2 weeks in Bergen, Norway

Now
53 °F

Overcast.


Feels Like: 53 °F
Forecast: 50 / 63 °F
Wind: 2 mph from West

Location: Bergen / Florida

Current Time: Sep 4, 2015 at 9:15:26 PM

Latest Report: Sep 4, 2015 at 8:00 PM


Visibility: 19 mi

Pressure: 29.75 "Hg

Humidity: 81%

Dew point: 47 °F

Location of BergenLocation

Historic Weather in Bergen — Graph

°F

Bergen temperature yesterday

Maximum temperature yesterday: 71 °F (at 3:00 PM)
Minimum temperature yesterday: 58 °F (at 10:00 PM)
Average temperature yesterday: 64 °F

Past Weeks' High & Low Weather Summary

 TemperatureHumidityPressure
High79 °F (Aug 23, 5:00 PM)88% (Aug 29, 6:00 AM)30.23 "Hg (Aug 29, 6:00 AM)
Low51 °F (Sep 1, 6:00 AM)28% (Aug 23, 1:00 PM)29.44 "Hg (Aug 27, 7:00 AM)
Average63 °F63%29.85 "Hg
* Reported Aug 20 8:00 PM — Sep 4 8:00 PM, Bergen, Weather by CustomWeather, © 2015

Note: Actual official high and low records may vary slightly from our data, if they occured in-between our weather recording intervals... More about our weather records

Advertising

Bergen weather history for previous 24 hours

 ConditionsComfort  
Time TempWeatherWind HumidityBarometerVisibility
8:00 PM
Fri, Sep 4
53 °FOvercast.2 mph81%29.75 "Hg19 mi
5:00 PM55 °FOvercast.6 mph82%29.80 "Hg19 mi
4:00 PM57 °FCool.5 mph80%29.81 "HgN/A
3:00 PM57 °FCool.6 mph80%29.82 "HgN/A
2:00 PM59 °FSprinkles. Overcast.2 mph75%29.83 "Hg19 mi
1:00 PM58 °FCool.5 mph71%29.83 "HgN/A
12:00 PM60 °FCool.3 mph65%29.83 "HgN/A
11:00 AM60 °FOvercast.1 mph62%29.84 "Hg19 mi
10:00 AM57 °FCool.2 mph70%29.85 "HgN/A
9:00 AM57 °FCool.1 mph64%29.85 "HgN/A
8:00 AM56 °FPartly sunny.2 mph67%29.85 "Hg19 mi
7:00 AM55 °FCool.2 mph68%29.85 "HgN/A
6:00 AM55 °FCool.2 mph65%29.85 "HgN/A
5:00 AM55 °FCool.1 mph68%29.86 "HgN/A
4:00 AM54 °FCool.2 mph69%29.86 "HgN/A
3:00 AM53 °FCool.2 mph71%29.86 "HgN/A
2:00 AM55 °FCool.2 mph67%29.86 "HgN/A
1:00 AM56 °FCool.2 mph64%29.86 "HgN/A
12:00 AM57 °FCool.3 mph67%29.85 "HgN/A
10:00 PM
Thu, Sep 3
58 °FCool.1 mph66%29.84 "HgN/A
9:00 PM60 °FCool.2 mph62%29.83 "HgN/A
Weather by CustomWeather, © 2015

See weather overviewHow to use our weather pages